Location: Karaa?a�
(36.7158°N, 30.4165°E)
Time: 13:47:59
(UTC+00:00)

Cosmos 1300 - Visible Passes

Search period start: 06 August 2020 00:00
Search period end: 16 August 2020 00:00
Orbit: 512 x 513 km, 82.5° (Epoch: 05 August)

Date Brightness Start Highest point End Pass type
(mag) Time Alt. Az. Time Alt. Az. Time Alt. Az.
06 Aug 5.9 01:27:46 10° E 01:28:40 11° E 01:29:36 10° ENE visible
08 Aug 2.7 02:28:07 10° SSW 02:31:54 66° W 02:35:42 10° N visible
09 Aug 2.6 02:12:08 10° S 02:15:56 86° W 02:19:45 10° N visible
10 Aug 2.9 01:56:11 10° S 01:59:58 73° E 02:03:46 10° N visible
11 Aug 3.3 01:40:45 13° S 01:44:01 55° E 01:47:45 10° NNE visible
12 Aug 3.8 01:25:32 18° SSE 01:28:03 42° E 01:31:41 10° NNE visible
13 Aug 4.2 01:10:16 21° SE 01:12:07 33° E 01:15:34 10° NNE visible
13 Aug 4.7 02:46:02 10° WSW 02:47:52 13° WNW 02:49:42 10° NW visible
14 Aug 4.6 00:54:58 22° ESE 00:56:11 26° E 00:59:23 10° NNE visible
14 Aug 4.4 02:29:57 12° WSW 02:31:49 16° WNW 02:34:17 10° NW visible
15 Aug 4.9 00:39:37 20° ESE 00:40:15 21° E 00:43:08 10° NE visible
15 Aug 4.2 02:14:36 18° W 02:15:46 20° WNW 02:18:40 10° NNW visible
